Weather in Kladno

Czech Republic     50°08′35″N   14°07′00″E
temp.,
°C
wind,
m/s
gust,
m/s
humid.,
%
clouds,
%
prec.,
mm/h
press.,
hPa
HPBL,
m
25 may, wed
wed2523:00+13sw348993 0.0 101271
02:00+13w2481100 0.0 1012102
05:00+12w1186100 0.0 101311
08:00+12wnw3585100 0.3 1015220
11:00+14wsw3577100 1.0 1016377
14:00+17wsw5666100 1.6 10161122
17:00+20wsw574899 0.3 10151942
20:00+16w336842 0.3 101650
26 may, thu
thu2623:00+11sw357245 0.0 101867
02:00+10sw487278 0.0 1019128
05:00+9sw4881100 0.0 1019154
08:00+14wsw61166100 0.0 1020698
11:00+18w7105797 0.0 10201627
14:00+18w7105999 0.1 10201825
17:00+19w895319 0.0 10201739
20:00+16wsw5106718 0.0 1020387
27 may, fri
fri2723:00+12sw487863 0.0 1021141
02:00+11sw488913 0.0 1020142
05:00+10sw41093100 0.0 1018217
08:00+15wsw713749 0.0 1017959
11:00+18w10145967 0.0 10161582
14:00+14w71282100 0.3 1017940
17:00+16wnw7126068 0.4 10171742
20:00+13wnw61154100 0.6 1017583
28 may, sat
sat2823:00+9w4961100 0.0 1019178
02:00+7wsw48765 0.0 1018150
05:00+5w4118511 0.0 1018294
08:00+10wnw8126571 0.0 10181333
11:00+12wnw811509 0.1 10181695
14:00+16wnw8103788 0.1 10172705
17:00+15nw8104138 0.0 10162197
20:00+12nw59585 0.0 1017447
29 may, sun
sun2923:00+7wsw33719 0.0 101836
02:00+6wsw33795 0.0 101828
05:00+5w33875 0.0 101731
08:00+9wnw346726 0.0 1017690
11:00+13wnw23485 0.0 10151630
14:00+16wnw243878 0.0 10132285
17:00+16wnw444099 0.0 10122145
20:00+11nne236834 0.1 101383